{"data":{"norad_id":57693,"intl_designator":"2023-126A","name":"CAPELLA-11 (ACADIA-1)","alt_names":[],"object_type":"PAYLOAD","status":"ACTIVE","operator":null,"country":"US","launch_date":"2023-08-23","launch_site_code":"RLLB","launch_vehicle":null,"mission":null,"orbit_class":"UNKNOWN","rcs_meters":null,"size_class":null,"mass_kg":null,"dimensions":null,"purposes":[],"wikipedia_slug":null,"has_3d_model":false,"image_url":null,"decayed_at":null,"tle_current":{"epoch":"2026-05-25T03:03:14.069088Z","epoch_age_seconds":67214,"freshness":"FRESH","line1":"1 57693U 23126A   26145.12724617  .00004260  00000+0  55314-3 0  9994","line2":"2 57693  53.0077 284.8139 0001775  61.2290 298.8866 14.82510460148707","mean_motion":14.8251046,"eccentricity":0.0001775,"inclination_deg":53.0077,"raan_deg":284.8139,"arg_perigee_deg":61.229,"mean_anomaly_deg":298.8866,"bstar":0.00055314,"rev_number":14870,"period_min":97.132535577523,"perigee_km":620.16859729818,"apogee_km":622.65343684424,"semimajor_km":6999.5480170712,"source":"CELESTRAK","updated_at":"2026-05-25T13:38:00.190128Z"}}}